START_TIME,STEP,MOV.,M29,t_acc.,H22,t_acc.,H26,t_acc.,H30,t_acc.
1979-07-19 12:00:31.750 ,0,0,0.,24.0,0.,24.0,0.,24.0,0.,24.0
1979-07-19 12:00:55.750 ,1,1,0.,24.0,0.,24.0,0.,24.0,0.,24.0
1979-07-19 12:01:19.750 ,1,0,0.,24.0,0.,24.0,0.,24.0,0.,24.0
1979-07-19 12:01:43.750 ,2,1,0.,24.0,0.,24.0,0.,24.0,0.,24.0
1979-07-19 12:02:07.750 ,2,0,0.,24.0,0.,24.0,0.,24.0,0.,24.0
1979-07-19 12:02:31.750 ,3,1,0.,24.0,0.,24.0,0.,24.0,0.,24.0
1979-07-19 12:02:55.750 ,3,0,0.,24.0,0.,24.0,0.,24.0,0.,24.0
1979-07-19 12:03:19.750 ,4,1,0.,24.0,0.,24.0,0.,24.0,0.,24.0
1979-07-19 12:03:43.750 ,4,0,0.,24.0,0.,24.0,0.,24.0,0.,24.0
1979-07-19 12:04:07.750 ,5,1,0.,24.0,0.,24.0,0.,24.0,0.,24.0
1979-07-19 12:04:31.750 ,5,0,0.,24.0,0.,24.0,0.,24.0,0.,24.0
1979-07-19 12:04:55.750 ,6,1,0.,24.0,0.,24.0,0.,24.0,0.,24.0
1979-07-19 12:05:19.750 ,6,0,0.,24.0,0.,24.0,0.,24.0,0.,24.0
1979-07-19 12:05:43.750 ,7,1,0.,24.0,0.,24.0,0.,24.0,0.,24.0
1979-07-19 12:06:07.750 ,7,0,0.,24.0,0.,24.0,0.,24.0,0.,24.0
1979-07-19 12:06:31.750 ,7,1,0.,24.0,0.,24.0,0.,24.0,0.,24.0
1979-07-19 12:06:55.750 ,7,0,0.,24.0,0.,24.0,0.,24.0,0.,24.0
1979-07-19 12:07:19.750 ,6,1,0.,24.0,0.,24.0,0.,24.0,0.,24.0
1979-07-19 12:07:43.750 ,6,0,0.,24.0,0.,24.0,0.,24.0,0.,24.0
1979-07-19 12:08:07.750 ,5,1,0.,24.0,0.,24.0,0.,24.0,0.,24.0
1979-07-19 12:08:31.750 ,5,0,0.,24.0,0.,24.0,0.,24.0,0.,24.0
1979-07-19 12:08:55.750 ,4,1,0.,24.0,0.,24.0,0.,24.0,0.,24.0
1979-07-19 12:09:19.750 ,4,0,0.,24.0,0.,24.0,0.,24.0,0.,24.0
1979-07-19 12:09:43.750 ,3,1,0.,24.0,0.,24.0,0.,24.0,0.,24.0
1979-07-19 12:10:07.750 ,3,0,0.,24.0,0.,24.0,0.,24.0,0.,24.0
1979-07-19 12:10:31.750 ,2,1,0.,24.0,0.,24.0,0.,24.0,0.,24.0
1979-07-19 12:10:55.750 ,2,0,0.,24.0,0.,24.0,0.,24.0,0.,24.0
1979-07-19 12:11:19.750 ,1,1,0.,24.0,0.,24.0,0.,24.0,0.,24.0
1979-07-19 12:11:43.750 ,0,0,0.,24.0,0.,24.0,0.,24.0,0.,24.0
1979-07-19 12:12:07.750 ,0,1,0.,24.0,0.,24.0,0.,24.0,0.,24.0
1979-07-19 12:12:31.750 ,0,0,0.,24.0,0.,24.0,0.,24.0,0.,24.0
1979-07-19 12:12:55.750 ,0,1,0.,24.0,0.,24.0,0.,24.0,0.,24.0
1979-07-19 12:13:19.750 ,0,0,0.,24.0,0.,24.0,0.,24.0,0.,24.0
1979-07-19 12:13:43.750 ,1,1,0.,24.0,0.,24.0,0.,24.0,0.,24.0
1979-07-19 12:14:07.750 ,1,0,0.,24.0,0.,24.0,0.,24.0,0.,24.0
1979-07-19 12:14:31.750 ,0,0,,0,,0,,0,,0
1979-07-19 12:14:55.750 ,0,0,,0,,0,,0,,0
1979-07-19 12:15:34.150 ,0,0,,0,,0,,0,,0
1979-07-19 12:15:43.750 ,0,0,,0,,0,,0,,0
1979-07-19 12:18:30.550 ,0,0,,0,,0,,0,,0
1979-07-19 12:18:31.750 ,7,0,0.,24.0,0.,24.0,0.,24.0,0.,24.0
1979-07-19 12:18:55.750 ,7,0,0.,24.0,0.,24.0,0.,24.0,0.,24.0
1979-07-19 12:19:19.750 ,5,1,0.,24.0,0.,24.0,0.,24.0,0.,24.0
1979-07-19 12:19:43.750 ,1,1,0.,24.0,0.,24.0,0.,24.0,0.,24.0
1979-07-19 12:20:07.750 ,2,1,0.,24.0,0.,24.0,0.,24.0,0.,24.0
1979-07-19 12:20:31.750 ,6,1,0.,24.0,0.,24.0,0.,24.0,0.,24.0
1979-07-19 12:20:55.750 ,5,1,0.,24.0,0.,24.0,0.,24.0,0.,24.0
1979-07-19 12:21:19.750 ,1,1,0.,24.0,0.,24.0,0.,24.0,0.,24.0
1979-07-19 12:21:43.750 ,2,1,0.,24.0,0.,24.0,0.,24.0,0.,24.0
1979-07-19 12:22:07.750 ,6,1,0.,24.0,0.,24.0,0.,24.0,0.,24.0
1979-07-19 12:22:31.750 ,5,1,0.,24.0,0.,24.0,0.,24.0,0.,24.0
1979-07-19 12:22:55.750 ,1,1,0.,24.0,0.,24.0,0.,24.0,0.,24.0
1979-07-19 12:23:19.750 ,2,1,0.,24.0,0.,24.0,0.,24.0,0.,24.0
1979-07-19 12:23:43.750 ,6,1,0.,24.0,0.,24.0,0.,24.0,0.,24.0
1979-07-19 12:24:07.750 ,5,1,0.,24.0,0.,24.0,0.,24.0,0.,24.0
1979-07-19 12:24:31.750 ,1,1,0.,24.0,0.,24.0,0.,24.0,0.,24.0
1979-07-19 12:24:55.750 ,2,1,0.,24.0,0.,24.0,0.,24.0,0.,24.0
1979-07-19 12:25:19.750 ,6,1,0.,24.0,0.,24.0,0.,24.0,0.,24.0
1979-07-19 12:25:43.750 ,5,1,0.,24.0,0.,24.0,0.,24.0,0.,24.0
1979-07-19 12:26:07.750 ,1,1,0.,24.0,0.,24.0,0.,24.0,0.,24.0
1979-07-19 12:26:31.750 ,2,1,0.,24.0,0.,24.0,0.,24.0,0.,24.0
1979-07-19 12:26:55.750 ,6,1,0.,24.0,0.,24.0,0.,24.0,0.,24.0
1979-07-19 12:27:19.750 ,5,1,0.,24.0,0.,24.0,0.,24.0,0.,24.0
1979-07-19 12:27:43.750 ,1,1,0.,24.0,0.,24.0,0.,24.0,0.,24.0
1979-07-19 12:28:07.750 ,2,1,0.,24.0,0.,24.0,0.,24.0,0.,24.0
1979-07-19 12:28:31.750 ,6,1,0.,24.0,0.,24.0,0.,24.0,0.,24.0
1979-07-19 12:28:55.750 ,5,1,0.,24.0,0.,24.0,0.,24.0,0.,24.0
1979-07-19 12:29:19.750 ,1,1,0.,24.0,0.,24.0,0.,24.0,0.,24.0
1979-07-19 12:29:43.750 ,0,0,0.,24.0,0.,24.0,0.,24.0,0.,24.0
1979-07-19 12:30:07.750 ,0,0,0.,24.0,0.,24.0,0.,24.0,0.,24.0
1979-07-19 12:30:31.750 ,5,1,0.,24.0,0.,24.0,0.,24.0,0.,24.0
1979-07-19 12:30:55.750 ,5,0,0.,24.0,0.,24.0,0.,24.0,0.,24.0
1979-07-19 12:31:19.750 ,4,1,0.,24.0,0.,24.0,0.,24.0,0.,24.0
1979-07-19 12:31:43.750 ,4,0,0.,24.0,0.,24.0,0.,24.0,0.,24.0
1979-07-19 12:32:07.750 ,3,1,0.,24.0,0.,24.0,0.,24.0,0.,24.0
1979-07-19 12:32:31.750 ,3,0,0.,24.0,0.,24.0,0.,24.0,0.,24.0
1979-07-19 12:32:55.750 ,2,1,0.,24.0,0.,24.0,0.,24.0,0.,24.0
1979-07-19 12:33:19.750 ,2,0,0.,24.0,0.,24.0,0.,24.0,0.,24.0
1979-07-19 12:33:43.750 ,1,1,0.,24.0,0.,24.0,0.,24.0,0.,24.0
1979-07-19 12:34:07.750 ,1,0,0.,24.0,0.,24.0,0.,24.0,0.,24.0
1979-07-19 12:34:31.750 ,0,1,0.,24.0,0.,24.0,0.,24.0,0.,24.0
1979-07-19 12:34:55.750 ,0,0,0.,24.0,0.,24.0,0.,24.0,0.,24.0
1979-07-19 12:35:19.750 ,0,1,0.,24.0,0.,24.0,0.,24.0,0.,24.0
1979-07-19 12:35:43.750 ,0,0,0.,24.0,0.,24.0,0.,24.0,0.,24.0
1979-07-19 12:36:07.750 ,1,1,0.,24.0,0.,24.0,0.,24.0,0.,24.0
1979-07-19 12:36:31.750 ,1,0,0.,24.0,0.,24.0,0.,24.0,0.,24.0
1979-07-19 12:36:55.750 ,2,1,0.,24.0,0.,24.0,0.,24.0,0.,24.0
1979-07-19 12:37:19.750 ,2,0,0.,24.0,0.,24.0,0.,24.0,0.,24.0
1979-07-19 12:37:43.750 ,3,1,0.,24.0,0.,24.0,0.,24.0,0.,24.0
1979-07-19 12:38:07.750 ,3,0,0.,24.0,0.,24.0,0.,24.0,0.,24.0
1979-07-19 12:38:31.750 ,4,1,0.,24.0,0.,24.0,0.,24.0,0.,24.0
1979-07-19 12:38:55.750 ,4,0,0.,24.0,0.,24.0,0.,24.0,0.,24.0
1979-07-19 12:39:19.750 ,5,1,0.,24.0,0.,24.0,0.,24.0,0.,24.0
1979-07-19 12:39:43.750 ,5,0,0.,24.0,0.,24.0,0.,24.0,0.,24.0
1979-07-19 12:40:55.750 ,0,0,0.,24.0,0.,24.0,0.,24.0,0.,24.0
1979-07-19 12:41:19.750 ,0,0,0.,24.0,0.,24.0,0.,24.0,0.,24.0
1979-07-19 12:41:19.750 ,0,0,0.,24.0,0.,24.0,0.,24.0,0.,24.0
1979-07-19 12:41:43.750 ,7,1,0.,24.0,0.,24.0,0.,24.0,0.,24.0
1979-07-19 12:42:07.750 ,7,0,0.,24.0,0.,24.0,0.,24.0,0.,24.0
1979-07-19 12:42:31.750 ,6,1,0.,24.0,0.,24.0,0.,24.0,0.,24.0
1979-07-19 12:42:55.750 ,6,0,0.,24.0,0.,24.0,0.,24.0,0.,24.0
1979-07-19 12:43:19.750 ,5,1,0.,24.0,0.,24.0,0.,24.0,0.,24.0
1979-07-19 12:43:43.750 ,5,0,0.,24.0,0.,24.0,0.,24.0,0.,24.0
1979-07-19 12:44:07.750 ,4,1,0.,24.0,0.,24.0,0.,24.0,0.,24.0
1979-07-19 12:44:31.750 ,4,0,0.,24.0,0.,24.0,0.,24.0,0.,24.0
1979-07-19 12:44:55.750 ,3,1,0.,24.0,0.,24.0,0.,24.0,0.,24.0
1979-07-19 12:45:19.750 ,3,0,0.,24.0,0.,24.0,0.,24.0,0.,24.0
1979-07-19 12:45:43.750 ,2,1,0.,24.0,0.,24.0,0.,24.0,0.,24.0
1979-07-19 12:46:07.750 ,2,0,0.,24.0,0.,24.0,0.,24.0,0.,24.0
1979-07-19 12:46:31.750 ,1,1,0.,24.0,0.,24.0,0.,24.0,0.,24.0
1979-07-19 12:46:55.750 ,1,0,0.,24.0,0.,24.0,0.,24.0,0.,24.0
1979-07-19 12:47:19.750 ,0,1,0.,24.0,0.,24.0,0.,24.0,0.,24.0
1979-07-19 12:47:43.750 ,0,0,0.,24.0,0.,24.0,0.,24.0,0.,24.0
1979-07-19 12:48:07.750 ,0,1,0.,24.0,0.,24.0,0.,24.0,0.,24.0
1979-07-19 12:48:31.750 ,0,0,0.,24.0,0.,24.0,0.,24.0,0.,24.0
1979-07-19 12:48:55.750 ,1,1,0.,24.0,0.,24.0,0.,24.0,0.,24.0
1979-07-19 12:49:19.750 ,1,0,0.,24.0,0.,24.0,0.,24.0,0.,24.0
1979-07-19 12:49:43.750 ,2,1,0.,24.0,0.,24.0,0.,24.0,0.,24.0
1979-07-19 12:50:07.750 ,2,0,0.,24.0,0.,24.0,0.,24.0,0.,24.0
1979-07-19 12:50:31.750 ,3,1,0.,24.0,0.,24.0,0.,24.0,0.,24.0
1979-07-19 12:50:55.750 ,3,0,0.,24.0,0.,24.0,0.,24.0,0.,24.0
1979-07-19 12:51:19.750 ,4,1,0.,24.0,0.,24.0,0.,24.0,0.,24.0
1979-07-19 12:51:43.750 ,4,0,0.,24.0,0.,24.0,0.,24.0,0.,24.0
1979-07-19 12:52:07.750 ,5,1,0.,24.0,0.,24.0,0.,24.0,0.,24.0
1979-07-19 12:52:31.750 ,5,0,0.,24.0,0.,24.0,0.,24.0,0.,24.0
1979-07-19 12:52:55.750 ,6,1,0.,24.0,0.,24.0,0.,24.0,0.,24.0
1979-07-19 12:53:19.750 ,6,0,0.,24.0,0.,24.0,0.,24.0,0.,24.0
1979-07-19 12:53:43.750 ,7,1,0.,24.0,0.,24.0,0.,24.0,0.,24.0
1979-07-19 12:54:07.750 ,7,0,0.,24.0,0.,24.0,0.,24.0,0.,24.0
1979-07-19 12:54:31.750 ,7,1,0.,24.0,0.,24.0,0.,24.0,0.,24.0
1979-07-19 12:54:55.750 ,7,0,0.,24.0,0.,24.0,0.,24.0,0.,24.0
1979-07-19 12:55:19.750 ,6,1,0.,24.0,0.,24.0,0.,24.0,0.,24.0
1979-07-19 12:55:43.750 ,6,0,0.,24.0,0.,24.0,0.,24.0,0.,24.0
1979-07-19 12:56:07.750 ,5,1,0.,24.0,0.,24.0,0.,24.0,0.,24.0
1979-07-19 12:56:31.750 ,5,0,0.,24.0,0.,24.0,0.,24.0,0.,24.0
1979-07-19 12:56:55.750 ,4,1,0.,24.0,0.,24.0,0.,24.0,0.,24.0
1979-07-19 12:57:19.750 ,4,0,0.,24.0,0.,24.0,0.,24.0,0.,24.0
1979-07-19 12:57:43.750 ,3,1,0.,24.0,0.,24.0,0.,24.0,0.,24.0
1979-07-19 12:58:07.750 ,3,0,0.,24.0,0.,24.0,0.,24.0,0.,24.0
1979-07-19 12:58:31.750 ,2,1,0.,24.0,0.,24.0,0.,24.0,0.,24.0
1979-07-19 12:58:55.750 ,2,0,0.,24.0,0.,24.0,0.,24.0,0.,24.0
1979-07-19 12:59:19.750 ,1,1,0.,24.0,0.,24.0,0.,24.0,0.,24.0
1979-07-19 12:59:43.750 ,1,0,0.,24.0,0.,24.0,0.,24.0,0.,24.0
1979-07-19 13:00:07.750 ,0,1,0.,24.0,0.,24.0,0.,24.0,0.,24.0
1979-07-19 13:00:31.750 ,0,0,0.,24.0,0.,24.0,0.,24.0,0.,24.0
1979-07-19 13:00:55.750 ,0,1,0.,24.0,0.,24.0,0.,24.0,0.,24.0
1979-07-19 13:01:19.750 ,0,0,0.,24.0,0.,24.0,0.,24.0,0.,24.0
1979-07-19 13:01:43.750 ,1,1,0.,24.0,0.,24.0,0.,24.0,0.,24.0
1979-07-19 13:02:07.750 ,1,0,0.,24.0,0.,24.0,0.,24.0,0.,24.0
1979-07-19 13:02:31.750 ,2,1,0.,24.0,0.,24.0,0.,24.0,0.,24.0
1979-07-19 13:02:55.750 ,2,0,0.,24.0,0.,24.0,0.,24.0,0.,24.0
1979-07-19 13:03:19.750 ,3,1,0.,24.0,0.,24.0,0.,24.0,0.,24.0
1979-07-19 13:03:43.750 ,3,0,0.,24.0,0.,24.0,0.,24.0,0.,24.0
1979-07-19 13:04:07.750 ,4,1,0.,24.0,0.,24.0,0.,24.0,0.,24.0
1979-07-19 13:04:31.750 ,4,0,0.,24.0,0.,24.0,0.,24.0,0.,24.0
1979-07-19 13:04:55.750 ,5,1,0.,24.0,0.,24.0,0.,24.0,0.,24.0
1979-07-19 13:05:19.750 ,5,0,0.,24.0,0.,24.0,0.,24.0,0.,24.0
1979-07-19 13:05:43.750 ,6,1,0.,24.0,0.,24.0,0.,24.0,0.,24.0
1979-07-19 13:06:07.750 ,6,0,0.,24.0,0.,24.0,0.,24.0,0.,24.0
1979-07-19 13:06:31.750 ,7,0,0.,24.0,0.,24.0,0.,24.0,0.,24.0
1979-07-19 13:06:55.750 ,7,0,0.,24.0,0.,24.0,0.,24.0,0.,24.0
1979-07-19 13:07:19.750 ,5,1,0.,24.0,0.,24.0,0.,24.0,0.,24.0
1979-07-19 13:07:43.750 ,1,1,0.,24.0,0.,24.0,0.,24.0,0.,24.0
1979-07-19 13:08:07.750 ,2,1,0.,24.0,0.,24.0,0.,24.0,0.,24.0
1979-07-19 13:08:31.750 ,6,1,0.,24.0,0.,24.0,0.,24.0,0.,24.0
1979-07-19 13:08:55.750 ,5,1,0.,24.0,0.,24.0,0.,24.0,0.,24.0
1979-07-19 13:09:19.750 ,1,1,0.,24.0,0.,24.0,0.,24.0,0.,24.0
1979-07-19 13:09:43.750 ,2,1,0.,24.0,0.,24.0,0.,24.0,0.,24.0
1979-07-19 13:10:07.750 ,6,1,0.,24.0,0.,24.0,0.,24.0,0.,24.0
1979-07-19 13:10:31.750 ,5,1,0.,24.0,0.,24.0,0.,24.0,0.,24.0
1979-07-19 13:10:55.750 ,1,1,0.,24.0,0.,24.0,0.,24.0,0.,24.0
1979-07-19 13:11:19.750 ,2,1,0.,24.0,0.,24.0,0.,24.0,0.,24.0
1979-07-19 13:11:43.750 ,6,1,0.,24.0,0.,24.0,0.,24.0,0.,24.0
1979-07-19 13:12:07.750 ,5,1,0.,24.0,0.,24.0,0.,24.0,0.,24.0
1979-07-19 13:12:31.750 ,1,1,0.,24.0,0.,24.0,0.,24.0,0.,24.0
1979-07-19 13:12:55.750 ,2,1,0.,24.0,0.,24.0,0.,24.0,0.,24.0
1979-07-19 13:13:19.750 ,6,1,0.,24.0,0.,24.0,0.,24.0,0.,24.0
1979-07-19 13:13:43.750 ,5,1,0.,24.0,0.,24.0,0.,24.0,0.,24.0
1979-07-19 13:14:07.750 ,1,1,0.,24.0,0.,24.0,0.,24.0,0.,24.0
1979-07-19 13:14:31.750 ,2,1,0.,24.0,0.,24.0,0.,24.0,0.,24.0
1979-07-19 13:14:55.750 ,6,1,0.,24.0,0.,24.0,0.,24.0,0.,24.0
1979-07-19 13:15:19.750 ,5,1,0.,24.0,0.,24.0,0.,24.0,0.,24.0
1979-07-19 13:15:43.750 ,1,1,0.,24.0,0.,24.0,0.,24.0,0.,24.0
1979-07-19 13:16:07.740 ,2,1,0.,24.0,0.,24.0,0.,24.0,0.,24.0
1979-07-19 13:16:31.740 ,6,1,0.,24.0,0.,24.0,0.,24.0,0.,24.0
1979-07-19 13:16:55.740 ,5,1,0.,24.0,0.,24.0,0.,24.0,0.,24.0
1979-07-19 13:17:19.740 ,1,1,0.,24.0,0.,24.0,0.,24.0,0.,24.0
1979-07-19 13:17:43.740 ,0,0,0.,24.0,0.,24.0,0.,24.0,0.,24.0
1979-07-19 13:18:07.740 ,0,0,0.,24.0,0.,24.0,0.,24.0,0.,24.0
1979-07-19 13:18:31.740 ,5,1,0.,24.0,0.,24.0,0.,24.0,0.,24.0
1979-07-19 13:18:55.740 ,5,0,0.,24.0,0.,24.0,0.,24.0,0.,24.0
1979-07-19 13:19:19.740 ,4,1,0.,24.0,0.,24.0,0.,24.0,0.,24.0
1979-07-19 13:19:43.740 ,4,0,0.,24.0,0.,24.0,0.,24.0,0.,24.0
1979-07-19 13:20:07.740 ,3,1,0.,24.0,0.,24.0,0.,24.0,0.,24.0
1979-07-19 13:20:31.740 ,3,0,0.,24.0,0.,24.0,0.,24.0,0.,24.0
1979-07-19 13:20:55.740 ,2,1,0.,24.0,0.,24.0,0.,24.0,0.,24.0
1979-07-19 13:21:19.740 ,2,0,0.,24.0,0.,24.0,0.,24.0,0.,24.0
1979-07-19 13:21:43.740 ,1,1,0.,24.0,0.,24.0,0.,24.0,0.,24.0
1979-07-19 13:22:07.740 ,1,0,0.,24.0,0.,24.0,0.,24.0,0.,24.0
1979-07-19 13:22:31.740 ,0,1,0.,24.0,0.,24.0,0.,24.0,0.,24.0
1979-07-19 13:22:55.740 ,0,0,0.,24.0,0.,24.0,0.,24.0,0.,24.0
1979-07-19 13:23:19.740 ,0,1,0.,24.0,0.,24.0,0.,24.0,0.,24.0
1979-07-19 13:23:43.740 ,0,0,0.,24.0,0.,24.0,0.,24.0,0.,24.0
1979-07-19 13:24:07.740 ,1,1,0.,24.0,0.,24.0,0.,24.0,0.,24.0
1979-07-19 13:24:31.740 ,1,0,0.,24.0,0.,24.0,0.,24.0,0.,24.0
1979-07-19 13:24:55.740 ,2,1,0.,24.0,0.,24.0,0.,24.0,0.,24.0
1979-07-19 13:25:19.740 ,2,0,0.,24.0,0.,24.0,0.,24.0,0.,24.0
1979-07-19 13:25:43.740 ,3,1,0.,24.0,0.,24.0,0.,24.0,0.,24.0
1979-07-19 13:26:07.740 ,3,0,0.,24.0,0.,24.0,0.,24.0,0.,24.0
1979-07-19 13:26:31.740 ,4,1,0.,24.0,0.,24.0,0.,24.0,0.,24.0
1979-07-19 13:26:55.740 ,4,0,0.,24.0,0.,24.0,0.,24.0,0.,24.0
1979-07-19 13:27:19.740 ,5,1,0.,24.0,0.,24.0,0.,24.0,0.,24.0
1979-07-19 13:27:43.740 ,5,0,0.,24.0,0.,24.0,0.,24.0,0.,24.0
1979-07-19 13:28:07.740 ,6,1,0.,24.0,0.,24.0,0.,24.0,0.,24.0
1979-07-19 13:28:31.740 ,6,0,0.,24.0,0.,24.0,0.,24.0,0.,24.0
1979-07-19 13:28:55.740 ,7,1,0.,24.0,0.,24.0,0.,24.0,0.,24.0
1979-07-19 13:29:19.740 ,7,0,0.,24.0,0.,24.0,0.,24.0,0.,24.0
1979-07-19 13:29:43.740 ,7,1,0.,24.0,0.,24.0,0.,24.0,0.,24.0
1979-07-19 13:30:07.740 ,7,0,0.,24.0,0.,24.0,0.,24.0,0.,24.0
1979-07-19 13:30:31.740 ,6,1,0.,24.0,0.,24.0,0.,24.0,0.,24.0
1979-07-19 13:30:55.740 ,6,0,0.,24.0,0.,24.0,0.,24.0,0.,24.0
1979-07-19 13:31:19.740 ,5,1,0.,24.0,0.,24.0,0.,24.0,0.,24.0
1979-07-19 13:31:43.740 ,5,0,0.,24.0,0.,24.0,0.,24.0,0.,24.0
1979-07-19 13:32:07.740 ,4,1,0.,24.0,0.,24.0,0.,24.0,0.,24.0
1979-07-19 13:32:31.740 ,4,0,0.,24.0,0.,24.0,0.,24.0,0.,24.0
1979-07-19 13:32:55.740 ,3,1,0.,24.0,0.,24.0,0.,24.0,0.,24.0
1979-07-19 13:33:19.740 ,3,0,0.,24.0,0.,24.0,0.,24.0,0.,24.0
1979-07-19 13:33:43.740 ,2,1,0.,24.0,0.,24.0,0.,24.0,0.,24.0
1979-07-19 13:34:07.740 ,2,0,0.,24.0,0.,24.0,0.,24.0,0.,24.0
1979-07-19 13:34:31.740 ,1,1,0.,24.0,0.,24.0,0.,24.0,0.,24.0
1979-07-19 13:34:55.740 ,1,0,0.,24.0,0.,24.0,0.,24.0,0.,24.0
1979-07-19 13:35:19.740 ,0,1,0.,24.0,0.,24.0,0.,24.0,0.,24.0
1979-07-19 13:35:43.740 ,0,0,0.,24.0,0.,24.0,0.,24.0,0.,24.0
1979-07-19 13:36:07.740 ,0,1,0.,24.0,0.,24.0,0.,24.0,0.,24.0
1979-07-19 13:36:31.740 ,0,0,0.,24.0,0.,24.0,0.,24.0,0.,24.0
1979-07-19 13:36:55.740 ,1,1,0.,24.0,0.,24.0,0.,24.0,0.,24.0
1979-07-19 13:37:19.740 ,1,0,0.,24.0,0.,24.0,0.,24.0,0.,24.0
1979-07-19 13:37:43.740 ,2,1,0.,24.0,0.,24.0,0.,24.0,0.,24.0
1979-07-19 13:38:07.740 ,2,0,0.,24.0,0.,24.0,0.,24.0,0.,24.0
1979-07-19 13:38:31.740 ,3,1,0.,24.0,0.,24.0,0.,24.0,0.,24.0
1979-07-19 13:38:55.740 ,3,0,0.,24.0,0.,24.0,0.,24.0,0.,24.0
1979-07-19 13:39:19.740 ,4,1,0.,24.0,0.,24.0,0.,24.0,0.,24.0
1979-07-19 13:39:43.740 ,4,0,0.,24.0,0.,24.0,0.,24.0,0.,24.0
1979-07-19 13:40:07.740 ,5,1,0.,24.0,0.,24.0,0.,24.0,0.,24.0
1979-07-19 13:40:31.740 ,5,0,0.,24.0,0.,24.0,0.,24.0,0.,24.0
1979-07-19 13:40:55.740 ,6,1,0.,24.0,0.,24.0,0.,24.0,0.,24.0
1979-07-19 13:41:19.740 ,6,0,0.,24.0,0.,24.0,0.,24.0,0.,24.0
1979-07-19 13:41:43.740 ,7,1,0.,24.0,0.,24.0,0.,24.0,0.,24.0
1979-07-19 13:42:07.740 ,7,0,0.,24.0,0.,24.0,0.,24.0,0.,24.0
1979-07-19 13:42:31.740 ,7,1,0.,24.0,0.,24.0,0.,24.0,0.,24.0
1979-07-19 13:42:55.740 ,7,0,0.,24.0,0.,24.0,0.,24.0,0.,24.0
1979-07-19 13:43:19.740 ,6,1,0.,24.0,0.,24.0,0.,24.0,0.,24.0
1979-07-19 13:43:43.740 ,6,0,0.,24.0,0.,24.0,0.,24.0,0.,24.0
1979-07-19 13:44:07.740 ,5,1,0.,24.0,0.,24.0,0.,24.0,0.,24.0
1979-07-19 13:44:31.740 ,5,0,0.,24.0,0.,24.0,0.,24.0,0.,24.0
1979-07-19 13:44:55.740 ,4,1,0.,24.0,0.,24.0,0.,24.0,0.,24.0
1979-07-19 13:45:19.740 ,4,0,0.,24.0,0.,24.0,0.,24.0,0.,24.0
1979-07-19 13:45:43.740 ,3,1,0.,24.0,0.,24.0,0.,24.0,0.,24.0
1979-07-19 13:46:07.740 ,3,0,0.,24.0,0.,24.0,0.,24.0,0.,24.0
1979-07-19 13:46:31.740 ,2,1,0.,24.0,0.,24.0,0.,24.0,0.,24.0
1979-07-19 13:46:55.740 ,2,0,0.,24.0,0.,24.0,0.,24.0,0.,24.0
1979-07-19 13:47:19.740 ,1,1,0.,24.0,0.,24.0,0.,24.0,0.,24.0
1979-07-19 13:47:43.740 ,1,0,0.,24.0,0.,24.0,0.,24.0,0.,24.0
1979-07-19 13:48:07.740 ,0,1,0.,24.0,0.,24.0,0.,24.0,0.,24.0
1979-07-19 13:48:31.740 ,0,0,0.,24.0,0.,24.0,0.,24.0,0.,24.0
1979-07-19 13:48:55.740 ,0,1,0.,24.0,0.,24.0,0.,24.0,0.,24.0
1979-07-19 13:49:19.740 ,0,0,0.,24.0,0.,24.0,0.,24.0,0.,24.0
1979-07-19 13:49:43.740 ,1,1,0.,24.0,0.,24.0,0.,24.0,0.,24.0
1979-07-19 13:50:07.740 ,1,0,0.,24.0,0.,24.0,0.,24.0,0.,24.0
1979-07-19 13:50:31.740 ,2,1,0.,24.0,0.,24.0,0.,24.0,0.,24.0
1979-07-19 13:50:55.740 ,2,0,0.,24.0,0.,24.0,0.,24.0,0.,24.0
1979-07-19 13:51:19.740 ,3,1,0.,24.0,0.,24.0,0.,24.0,0.,24.0
1979-07-19 13:51:43.740 ,3,0,0.,24.0,0.,24.0,0.,24.0,0.,24.0
1979-07-19 13:52:07.740 ,4,1,0.,24.0,0.,24.0,0.,24.0,0.,24.0
1979-07-19 13:52:31.740 ,4,0,0.,24.0,0.,24.0,0.,24.0,0.,24.0
1979-07-19 13:52:55.740 ,5,1,0.,24.0,0.,24.0,0.,24.0,0.,24.0
1979-07-19 13:53:19.740 ,5,0,0.,24.0,0.,24.0,0.,24.0,0.,24.0
1979-07-19 13:53:43.740 ,6,1,0.,24.0,0.,24.0,0.,24.0,0.,24.0
1979-07-19 13:54:07.740 ,6,0,0.,24.0,0.,24.0,0.,24.0,0.,24.0
1979-07-19 13:54:31.740 ,7,0,0.,24.0,0.,24.0,0.,24.0,0.,24.0
1979-07-19 13:54:55.740 ,7,0,0.,24.0,0.,24.0,0.,24.0,0.,24.0
1979-07-19 13:56:07.740 ,0,0,0.,24.0,0.,24.0,0.,24.0,0.,24.0
1979-07-19 13:56:31.740 ,6,1,0.,24.0,0.,24.0,0.,24.0,0.,24.0
1979-07-19 13:56:55.740 ,5,1,0.,24.0,0.,24.0,0.,24.0,0.,24.0
1979-07-19 13:57:19.740 ,1,1,0.,24.0,0.,24.0,0.,24.0,0.,24.0
1979-07-19 13:57:43.740 ,2,1,0.,24.0,0.,24.0,0.,24.0,0.,24.0
1979-07-19 13:58:07.740 ,6,1,0.,24.0,0.,24.0,0.,24.0,0.,24.0
1979-07-19 13:58:31.740 ,5,1,0.,24.0,0.,24.0,0.,24.0,0.,24.0
1979-07-19 13:58:55.740 ,1,1,0.,24.0,0.,24.0,0.,24.0,0.,24.0
1979-07-19 13:59:19.740 ,2,1,0.,24.0,0.,24.0,0.,24.0,0.,24.0
1979-07-19 13:59:43.740 ,6,1,0.,24.0,0.,24.0,0.,24.0,0.,24.0
1979-07-19 14:00:07.740 ,5,1,0.,24.0,0.,24.0,0.,24.0,0.,24.0
1979-07-19 14:00:31.740 ,1,1,0.,24.0,0.,24.0,0.,24.0,0.,24.0
1979-07-19 14:00:55.740 ,2,1,0.,24.0,0.,24.0,0.,24.0,0.,24.0
1979-07-19 14:01:19.740 ,6,1,0.,24.0,0.,24.0,0.,24.0,0.,24.0
1979-07-19 14:01:43.740 ,5,1,0.,24.0,0.,24.0,0.,24.0,0.,24.0
1979-07-19 14:02:07.740 ,1,1,0.,24.0,0.,24.0,0.,24.0,0.,24.0
1979-07-19 14:02:31.740 ,2,1,0.,24.0,0.,24.0,0.,24.0,0.,24.0
1979-07-19 14:02:55.740 ,6,1,0.,24.0,0.,24.0,0.,24.0,0.,24.0
1979-07-19 14:03:19.740 ,5,1,0.,24.0,0.,24.0,0.,24.0,0.,24.0
1979-07-19 14:03:43.740 ,1,1,0.,24.0,0.,24.0,0.,24.0,0.,24.0
1979-07-19 14:04:07.740 ,2,1,0.,24.0,0.,24.0,0.,24.0,0.,24.0
1979-07-19 14:04:31.740 ,6,1,0.,24.0,0.,24.0,0.,24.0,0.,24.0
1979-07-19 14:04:55.740 ,5,1,0.,24.0,0.,24.0,0.,24.0,0.,24.0
1979-07-19 14:05:19.740 ,1,1,0.,24.0,0.,24.0,0.,24.0,0.,24.0
1979-07-19 14:05:43.740 ,0,0,0.,24.0,0.,24.0,0.,24.0,0.,24.0
1979-07-19 14:06:07.740 ,0,0,0.,24.0,0.,24.0,0.,24.0,0.,24.0
1979-07-19 14:06:31.740 ,5,1,0.,24.0,0.,24.0,0.,24.0,0.,24.0
1979-07-19 14:06:55.740 ,5,0,0.,24.0,0.,24.0,0.,24.0,0.,24.0
1979-07-19 14:07:19.740 ,4,1,0.,24.0,0.,24.0,0.,24.0,0.,24.0
1979-07-19 14:07:43.740 ,4,0,0.,24.0,0.,24.0,0.,24.0,0.,24.0
1979-07-19 14:08:07.740 ,3,1,0.,24.0,0.,24.0,0.,24.0,0.,24.0
1979-07-19 14:08:31.740 ,3,0,0.,24.0,0.,24.0,0.,24.0,0.,24.0
1979-07-19 14:08:55.740 ,2,1,0.,24.0,0.,24.0,0.,24.0,0.,24.0
1979-07-19 14:09:19.740 ,2,0,0.,24.0,0.,24.0,0.,24.0,0.,24.0
1979-07-19 14:09:43.740 ,1,1,0.,24.0,0.,24.0,0.,24.0,0.,24.0
1979-07-19 14:10:07.740 ,1,0,0.,24.0,0.,24.0,0.,24.0,0.,24.0
1979-07-19 14:10:31.740 ,0,1,0.,24.0,0.,24.0,0.,24.0,0.,24.0
1979-07-19 14:10:55.740 ,0,0,0.,24.0,0.,24.0,0.,24.0,0.,24.0
1979-07-19 14:11:19.740 ,0,1,0.,24.0,0.,24.0,0.,24.0,0.,24.0
1979-07-19 14:11:43.740 ,0,0,0.,24.0,0.,24.0,0.,24.0,0.,24.0
1979-07-19 14:12:07.740 ,1,1,0.,24.0,0.,24.0,0.,24.0,0.,24.0
1979-07-19 14:12:31.740 ,1,0,0.,24.0,0.,24.0,0.,24.0,0.,24.0
1979-07-19 14:12:55.740 ,2,1,0.,24.0,0.,24.0,0.,24.0,0.,24.0
1979-07-19 14:13:19.740 ,2,0,0.,24.0,0.,24.0,0.,24.0,0.,24.0
1979-07-19 14:13:43.740 ,3,1,0.,24.0,0.,24.0,0.,24.0,0.,24.0
1979-07-19 14:14:07.740 ,3,0,0.,24.0,0.,24.0,0.,24.0,0.,24.0
1979-07-19 14:14:31.740 ,4,1,0.,24.0,0.,24.0,0.,24.0,0.,24.0
1979-07-19 14:14:55.740 ,4,0,0.,24.0,0.,24.0,0.,24.0,0.,24.0
1979-07-19 14:15:19.740 ,5,1,0.,24.0,0.,24.0,0.,24.0,0.,24.0
1979-07-19 14:15:43.740 ,5,0,0.,24.0,0.,24.0,0.,24.0,0.,24.0
1979-07-19 14:16:07.740 ,6,1,0.,24.0,0.,24.0,0.,24.0,0.,24.0
1979-07-19 14:16:31.740 ,6,0,0.,24.0,0.,24.0,0.,24.0,0.,24.0
1979-07-19 14:16:55.740 ,7,1,0.,24.0,0.,24.0,0.,24.0,0.,24.0
1979-07-19 14:17:19.740 ,7,0,0.,24.0,0.,24.0,0.,24.0,0.,24.0
1979-07-19 14:17:43.740 ,7,1,0.,24.0,0.,24.0,0.,24.0,0.,24.0
1979-07-19 14:18:07.740 ,7,0,0.,24.0,0.,24.0,0.,24.0,0.,24.0
1979-07-19 14:18:31.740 ,6,1,0.,24.0,0.,24.0,0.,24.0,0.,24.0
1979-07-19 14:18:55.740 ,6,0,0.,24.0,0.,24.0,0.,24.0,0.,24.0
1979-07-19 14:19:19.740 ,5,1,0.,24.0,0.,24.0,0.,24.0,0.,24.0
1979-07-19 14:19:43.740 ,5,0,0.,24.0,0.,24.0,0.,24.0,0.,24.0
1979-07-19 14:20:07.740 ,4,1,0.,24.0,0.,24.0,0.,24.0,0.,24.0
1979-07-19 14:20:31.740 ,4,0,0.,24.0,0.,24.0,0.,24.0,0.,24.0
1979-07-19 14:20:55.740 ,3,1,0.,24.0,0.,24.0,0.,24.0,0.,24.0
1979-07-19 14:21:19.740 ,3,0,0.,24.0,0.,24.0,0.,24.0,0.,24.0
1979-07-19 14:21:43.740 ,2,1,0.,24.0,0.,24.0,0.,24.0,0.,24.0
1979-07-19 14:22:07.740 ,2,0,0.,24.0,0.,24.0,0.,24.0,0.,24.0
1979-07-19 14:22:31.740 ,1,1,0.,24.0,0.,24.0,0.,24.0,0.,24.0
1979-07-19 14:22:55.740 ,1,0,0.,24.0,0.,24.0,0.,24.0,0.,24.0
1979-07-19 14:23:19.740 ,0,1,0.,24.0,0.,24.0,0.,24.0,0.,24.0
1979-07-19 14:23:43.740 ,0,0,0.,24.0,0.,24.0,0.,24.0,0.,24.0
1979-07-19 14:24:07.740 ,0,1,0.,24.0,0.,24.0,0.,24.0,0.,24.0
1979-07-19 14:24:31.740 ,0,0,0.,24.0,0.,24.0,0.,24.0,0.,24.0
1979-07-19 14:24:55.740 ,1,1,0.,24.0,0.,24.0,0.,24.0,0.,24.0
1979-07-19 14:25:19.740 ,1,0,0.,24.0,0.,24.0,0.,24.0,0.,24.0
1979-07-19 14:25:43.740 ,2,1,0.,24.0,0.,24.0,0.,24.0,0.,24.0
1979-07-19 14:26:07.740 ,2,0,0.,24.0,0.,24.0,0.,24.0,0.,24.0
1979-07-19 14:26:31.740 ,3,1,0.,24.0,0.,24.0,0.,24.0,0.,24.0
1979-07-19 14:26:55.740 ,3,0,0.,24.0,0.,24.0,0.,24.0,0.,24.0
1979-07-19 14:27:19.740 ,4,1,0.,24.0,0.,24.0,0.,24.0,0.,24.0
1979-07-19 14:27:43.740 ,4,0,0.,24.0,0.,24.0,0.,24.0,0.,24.0
1979-07-19 14:28:07.740 ,5,1,0.,24.0,0.,24.0,0.,24.0,0.,24.0
1979-07-19 14:28:31.740 ,5,0,0.,24.0,0.,24.0,0.,24.0,0.,24.0
1979-07-19 14:28:55.740 ,6,1,0.,24.0,0.,24.0,0.,24.0,0.,24.0
1979-07-19 14:29:19.740 ,6,0,0.,24.0,0.,24.0,0.,24.0,0.,24.0
1979-07-19 14:29:43.740 ,7,1,0.,24.0,0.,24.0,0.,24.0,0.,24.0
1979-07-19 14:30:07.740 ,7,0,0.,24.0,0.,24.0,0.,24.0,0.,24.0
1979-07-19 14:30:31.740 ,7,1,0.,24.0,0.,24.0,0.,24.0,0.,24.0
1979-07-19 14:30:55.740 ,7,0,0.,24.0,0.,24.0,0.,24.0,0.,24.0
1979-07-19 14:31:19.740 ,6,1,0.,24.0,0.,24.0,0.,24.0,0.,24.0
1979-07-19 14:31:43.740 ,6,0,0.,24.0,0.,24.0,0.,24.0,0.,24.0
1979-07-19 14:32:07.740 ,5,1,0.,24.0,0.,24.0,0.,24.0,0.,24.0
1979-07-19 14:32:31.740 ,5,0,0.,24.0,0.,24.0,0.,24.0,0.,24.0
1979-07-19 14:32:55.740 ,4,1,0.,24.0,0.,24.0,0.,24.0,0.,24.0
1979-07-19 14:33:19.740 ,4,0,0.,24.0,0.,24.0,0.,24.0,0.,24.0
1979-07-19 14:33:43.740 ,3,1,0.,24.0,0.,24.0,0.,24.0,0.,24.0
1979-07-19 14:34:07.740 ,3,0,0.,24.0,0.,24.0,0.,24.0,0.,24.0
1979-07-19 14:34:31.740 ,2,1,0.,24.0,0.,24.0,0.,24.0,0.,24.0
1979-07-19 14:34:55.740 ,2,0,0.,24.0,0.,24.0,0.,24.0,0.,24.0
1979-07-19 14:35:19.740 ,1,1,0.,24.0,0.,24.0,0.,24.0,0.,24.0
1979-07-19 14:35:43.740 ,1,0,0.,24.0,0.,24.0,0.,24.0,0.,24.0
1979-07-19 14:36:07.740 ,0,1,0.,24.0,0.,24.0,0.,24.0,0.,24.0
1979-07-19 14:36:31.740 ,0,0,0.,24.0,0.,24.0,0.,24.0,0.,24.0
1979-07-19 14:36:55.740 ,0,1,0.,24.0,0.,24.0,0.,24.0,0.,24.0
1979-07-19 14:37:19.740 ,0,0,0.,24.0,0.,24.0,0.,24.0,0.,24.0
1979-07-19 14:37:43.740 ,1,1,0.,24.0,0.,24.0,0.,24.0,0.,24.0
1979-07-19 14:38:07.740 ,1,0,0.,24.0,0.,24.0,0.,24.0,0.,24.0